Вернуться в каталог

CZ-3C DEB

LostGTO
NORAD 39354·DEBRIS·🇨🇳 China

Запущен Oct 31, 2010 с Xichang Satellite Launch Center

Loading…

TLE

УстаревшееSource: Space-Track

Эпоха: Aug 13, 2026, 22:21 UTC

1 39354U 10057U   26225.93165227  .00000136  00000-0  34211-2 0  9992
2 39354  20.7361  70.9104 7177164 203.6342 351.9240  2.22656318100087

Отслеживайте CZ-3C DEB в реальном времени с AllMySat

Download on the App Store